Other Public Products
Issued by NWS Grand Forks, ND

Home | Current Version | Previous Version | Text Only | Print | Product List | Glossary On
Versions: 1 2 3 4 5 6 7 8 9 10 11 12 13 14 15 16 17 18 19 20 21 22 23 24 25 26 27 28 29 30 31 32 33 34 35 36 37 38 39 40 41 42 43 44 45 46 47 48 49 50
000
FPUS83 KFGF 011131
OPUFGF
PRAIRIE TO PINES WEATHER ROUNDUP
NATIONAL WEATHER SERVICE EASTERN NORTH DAKOTA/GRAND FORKS ND
600 AM CDT WED OCT 01 2014

 **SATELLITE DATA USED TO AUGMENT SKY COVER AT AUTOMATED STATIONS**
 *****  WEATHER ACROSS EASTERN NORTH DAKOTA  *****

CITY           SKY/WX    TMP DP  RH WIND       PRES   REMARKS
GRAND FORKS    CLOUDY    61  53  75 SW14      29.53R
GRAND FORKS AF CLOUDY    59  54  83 SW20G25   29.53R
GRAND CITY NWS   N/A     59 N/A N/A SW12        N/A
BUXTON           N/A     60  55  85 S13         N/A
DEVILS LAKE    CLOUDY    55  46  71 SW18      29.48R
FARGO          CLEAR     60  56  86 S15G21    29.60S
WAHPETON ARPT  MOSUNNY   59  54  82 S10       29.66R
$$

 *****  WEATHER ACROSS CENTRAL AND WESTERN NORTH DAKOTA  *****

CITY           SKY/WX    TMP DP  RH WIND       PRES   REMARKS
JAMESTOWN      CLOUDY    56  52  86 SW12      29.57R
BISMARCK       CLOUDY    57  53  86 W13       29.57R
MINOT          CLOUDY    52  49  89 SW7       29.46R
MINOT AFB      CLOUDY    52  52 100 W10       29.46R
GARRISON         N/A     55  53  93 W18G26    29.50R
WILLISTON      CLOUDY    54  49  83 W17G25    29.54R
DICKINSON      MOCLDY    52  48  86 W20       29.61R
HETTINGER      CLOUDY    51  49  92 W13       29.68R
$$

 *****  OTHER OBSERVATIONS NORTHEAST NORTH DAKOTA  *****

CITY           SKY/WX    TMP DP  RH WIND       PRES   REMARKS
WALHALLA         N/A     57  55  94 S17G23    29.43R
LANGDON        CLOUDY    54  50  87 SW20G26   29.44R
CAVALIER       CLOUDY    57  54  88 S16G24    29.45R
GRAFTON        CLOUDY    57  52  82 S18G26    29.50R
CANDO          CLOUDY    54  50  87 SW13      29.46R
FORT TOTTEN    NOT AVBL
ROLLA          CLOUDY    50  50 100 SW14G21   29.42R
RUGBY          CLOUDY    50  50 100 SW10G18   29.46R
 ***** THE ABOVE OBSERVATIONS ARE NON NWS ARE NOT QUALITY
        CONTROLLED AND MAY MIS-REPORT RAIN FOR SNOW...
$$

 *****  OTHER OBSERVATIONS SOUTHEAST NORTH DAKOTA *****

CITY           SKY/WX    TMP DP  RH WIND       PRES   REMARKS
COOPERSTOWN    NOT AVBL
VALLEY CITY    CLOUDY    55  55 100 SW18G25   29.58S
OAKES            N/A     54  54 100 S10       29.64R
GWINNER          N/A     57  54  88 SW12      29.64S
SHEYENNE NWR     N/A     58  52  79 SW9       29.95
BUFFALO          N/A     57  50  79 SW12        N/A
WYNDMERE         N/A     57  57 100 S6          N/A
 ***** THE ABOVE OBSERVATIONS ARE NON NWS ARE NOT QUALITY
       CONTROLLED AND MAY MIS-REPORT RAIN FOR SNOW...
$$

  *****  WEATHER ACROSS NORTHERN MINNESOTA  *****

CITY           SKY/WX    TMP DP  RH WIND       PRES   REMARKS
FLAG ISLAND    CLOUDY    54  48  82 S35       29.59S
WARROAD        CLOUDY    55  52  88 SE16G28   29.59F
ROSEAU         CLOUDY    57  52  82 S23G32    29.56S
HALLOCK        CLOUDY    61  52  72 SW24G35   29.49R
THF RVR FALLS  CLOUDY    59  54  82 S20G26    29.57R
HALSTAD          N/A     60  55  85 S15         N/A
FOSSTON        MOCLDY    55  52  88 S17G26    29.62S
BAUDETTE       CLOUDY    52  47  83 S10       29.67S
WASKISH        MOCLDY    52  48  87 SE15G23   29.68F
CROOKSTON      CLOUDY    61  54  77 S21G31    29.58R
$$
  *****  WEATHER ACROSS CENTRAL AND WEST MINNESOTA  *****

CITY           SKY/WX    TMP DP  RH WIND       PRES   REMARKS
BEMIDJI        CLOUDY    53  49  87 SE14      29.69S
PARK RAPIDS    CLOUDY    52  49  89 SE18      29.72S
WADENA         CLOUDY    52  52 100 SE12      29.72S FOG
DETROIT LAKES  CLOUDY    59  55  88 S13G18    29.68S
MOORHEAD       NOT AVBL
FERGUS FALLS   MOCLDY    61  57  88 S14       29.68S
ELBOW LAKE     CLOUDY    59  57  94 S14       29.70R
MORRIS MN      MOCLDY    61  57  88 SE13      29.70R FOG
STAPLES        CLOUDY    50  48  93 SE9       29.74S FOG
WHEATON        PTCLDY    57  55  94 SE8       29.68S
$$
  *****  WEATHER ELSEWHERE ACROSS MINNESOTA  *****

CITY           SKY/WX    TMP DP  RH WIND       PRES   REMARKS
DULUTH         CLOUDY    47  42  83 SE14      29.86S
INTRNTL FALLS  CLOUDY    50  45  83 S8        29.74F
ELY            CLOUDY    46  43  87 SE10      29.84F
CLOQUET        CLOUDY    46  43  87 E8        29.85S
BRAINERD       CLOUDY    50  47  89 S10G22    29.78F
HIBBING        CLOUDY    50  44  80 SE10      29.83S
ALEXANDRIA     CLOUDY    55  54  96 SE13      29.74S FOG
SAINT CLOUD    CLOUDY    53  46  77 SE14      29.80S
MINNEAPOLIS    CLOUDY    50  45  83 SE13      29.84F
$$

  *****  WEATHER ACROSS SOUTH DAKOTA  *****

CITY           SKY/WX    TMP DP  RH WIND       PRES   REMARKS
SIOUX FALLS    CLOUDY    63  61  93 S9        29.71S
BROOKINGS      NOT AVBL
WATERTOWN      MOCLDY    60  59  96 S8        29.69S
HURON          CLOUDY    61  59  93 S7        29.68R
SISSETON         N/A     60  58  92 SW8       29.65S
ABERDEEN       MOCLDY    55  52  89 S7        29.66S
MITCHELL       CLOUDY    61  60  97 CALM      29.70S
PIERRE         CLOUDY    54  47  77 SW6       29.68R
MOBRIDGE       PTCLDY    53  50  89 SW5       29.63R
RAPID CITY     MOCLDY    50  45  83 W6        29.76S
$$

  *****  SOME WEATHER IN NEARBY STATES *****

CITY           SKY/WX    TMP DP  RH WIND       PRES   REMARKS
GLASGOW MT     CLOUDY    49  45  86 W17G23    29.69R
GREAT FALLS MT CLOUDY    43  40  89 SW8       29.92R
CHEYENNE WY    CLOUDY    50  34  54 NW6       29.91R
SCOTTSBLUFF NE CLEAR     45  43  93 W6        29.84R
OMAHA NE       RAIN      62  60  93 SE9       29.72F FOG
DES MOINES IA  HVY RAIN  60  57  89 E10       29.80F FOG
DAVENPORT IA   NOT AVBL
CHICAGO IL     PTCLDY    49  44  83 S6        30.00S
EAU CLAIRE WI  CLOUDY    48  43  82 SE13      29.92F
LA CROSSE WI   CLOUDY    51  45  79 SE8       29.94F
$$

  *****  SOME NATIONAL WEATHER *****

CITY           SKY/WX    TMP DP  RH WIND       PRES   REMARKS
LA GUARDIA NY  LGT RAIN  61  57  88 NE9       30.01R FOG
RALEIGH NC     PTCLDY    58  56  93 CALM      29.97R FOG
ATLANTA GA     PTCLDY    65  63  93 W6        29.97R
NEW ORLEANS LA PTCLDY    76  71  85 E5        29.88S
OKLAHOMA CITY  PTCLDY    71  65  81 S13       29.74S
ALBUQUERQUE NM CLEAR     53  35  50 CALM      29.96F
SALT LAKE CITY MOCLDY    49  37  63 NW7       29.98R
LOS ANGELES CA PTCLDY    65  60  84 CALM      29.77S
BOISE ID       CLEAR     46  38  73 NW8       30.08R
SEATTLE WA     PTCLDY    53  49  86 CALM      30.20S
$$

*** WEATHER ACROSS MANITOBA...SASKATCHEWAN AND ONTARIO ***
                ***ONTARIO***

CITY           SKY/WX    TMP DP  RH WIND       PRES   REMARKS
GERALDTON      CLOUDY    41  39  93 E2        29.98F
THUNDER BAY    CLOUDY    46  45  93 VRB7      29.96F
SIOUX LOOKOUT  MOCLDY    45  41  87 S6        29.78F
TORONTO        CLOUDY    59  54  82 E8        30.05R
BIG TROUT LK   CLEAR     45  37  76 S14G23    29.77F
PICKLE LAKE    PTCLDY    37  34  87 SE13      29.82
DRYDEN         MOCLDY    48  43  81 S18G25    29.73F
KENORA         CLOUDY    50  46  87 S17G28    29.65
$$
                *** MANITOBA***

CITY           SKY/WX    TMP DP  RH WIND       PRES   REMARKS
BRANDON        DRIZZLE   50  50 100 NW7       29.35R FOG
DAUPHIN        LGT RAIN  50  50 100 N5        29.37F FOG
ISLAND LAKE    MOCLDY    46  43  87 SE12      29.60F
PILOT MOUND      N/A     54  52  94 S20G26      N/A
THE PAS        LGT RAIN  50  50 100 E8        29.42
THOMPSON       CLOUDY    48  48 100 SE3       29.53F
WINNIPEG       LGT RAIN  57  52  82 SE25G35   29.41F
LYNN LAKE      LGT RAIN  48  48 100 E2        29.49F VSB 3/8
CHURCHILL      LGT RAIN  43  41  93 S14       29.64F
GILLAM         PTCLDY    37  37 100 SE5       29.62F
$$
                ***SASKATCHEWAN***

CITY           SKY/WX    TMP DP  RH WIND       PRES   REMARKS
ESTEVAN        LGT RAIN  50  50 100 NW7       29.46R FOG
KINDERSLEY     CLOUDY    46  43  87 NW15G21   29.72R
LLOYDMINSTER   CLEAR     43  39  87 NW14G20   29.72R
PRINCE ALBERT  LGT RAIN  50  48  93 NW17G24   29.53
REGINA         LGT RAIN  50  50 100 NW20G28   29.49R



USA.gov is the U.S. government's official web portal to all federal, state and local government web resources and services.